Location: Miles
(41.4492°N, 81.6087°W)
Time: 19:54:22
(UTC+00:00)

Tiros 1 despin weight - Pass Details

Date: 15 September 2024
Orbit: 573 x 615 km, 48.2° (Epoch: 04 October)

Event Time Altitude Azimuth Distance (km) Brightness Sun altitude
Rises 06:49:58 0° 190° (S) 2,844 - -41.4°
Reaches altitude 10° 06:53:05 10° 168° (SSE) 1,955 - -41.1°
Maximum altitude 06:55:40 15° 132° (SE) 1,652 - -40.8°
Drops below altitude 10° 06:58:16 10° 97° (E) 1,973 - -40.6°
Exits shadow 07:00:30 - 80° (E) 2,586 ? -40.4°
Sets 07:01:25 0° 75° (ENE) 2,888 ? -40.3°
